Tracking 25734 objects as of 28-May-2022
HD Live streaming from Space Station
objects crossing your sky now

ARIANE 5 DEB (SYLDA)

Track ARIANE 5 DEB (SYLDA) now!
10-day predictions


NORAD ID: 43273
Int'l Code: 2018-033C
Perigee: 253.3 km
Apogee: 23,051.2 km
Inclination: 2.6 °
Period: 401.3 minutes
Semi major axis: 18023 km
RCS: Unknown
Launch date: April 5, 2018
Source: France (FR)
Launch site: FRENCH GUIANA (FRGUI)

Note: This is SATELLITE DEBRIS
aabbcc
Your satellite tracking list
Your tracking list is empty




NASA's NSSDC Master Catalog

Two Line Element Set (TLE):
1 43273U 18033C   22147.58734182  .00050663  00000-0  63113-2 0  9994
2 43273   2.5555 212.1899 6324601  71.6203 344.4852  3.58801755 43656
Source of the keplerian elements: AFSPC